FW6795 Weather Reports


time (UTC)temp
C
wind
direction
speed
KPH
gust
KPH
rain 1hr
cm
rain 24hr
cm
rain mn
cm
humidity
%
barometer
mb
20260503033059 4 190 4.8 14.5 0.00 0.00 0.00 67 1014.6
20260503032549 4 190 4.8 9.7 0.00 0.00 0.00 67 1014.5
20260503032048 4 190 4.8 9.7 0.00 0.00 0.00 67 1014.5
20260503031550 4 190 4.8 12.9 0.00 0.00 0.00 67 1014.5
20260503031049 4 190 3.2 12.9 0.00 0.00 0.00 67 1014.4
20260503030549 4 190 4.8 12.9 0.00 0.00 0.00 66 1014.5
20260503030053 4 190 3.2 8.0 0.00 0.00 0.00 66 1014.6
20260503025548 4 190 1.6 4.8 0.00 0.00 0.00 66 1014.6
20260503025052 5 190 1.6 6.4 0.00 0.00 0.00 65 1014.6
20260503024628 5 190 3.2 6.4 0.00 0.00 0.00 65 1014.6
20260503024048 5 190 1.6 8.0 0.00 0.00 0.00 65 1014.6
20260503023549 5 190 3.2 11.3 0.00 0.00 0.00 65 1014.6
20260503023051 5 190 4.8 11.3 0.00 0.00 0.00 64 1014.7
20260503022548 5 190 4.8 8.0 0.00 0.00 0.00 64 1014.5
20260503022052 5 190 3.2 6.4 0.00 0.00 0.00 64 1014.5
20260503021552 5 190 3.2 6.4 0.00 0.00 0.00 64 1014.4
20260503021048 5 190 1.6 6.4 0.00 0.00 0.00 64 1014.4
20260503020549 5 190 1.6 9.7 0.00 0.00 0.00 64 1014.5
20260503020049 5 190 4.8 9.7 0.00 0.00 0.00 64 1014.5
20260503015549 5 190 3.2 8.0 0.00 0.00 0.00 63 1014.3
20260503015051 5 190 4.8 6.4 0.00 0.00 0.00 64 1014.4
20260503014602 5 190 3.2 8.0 0.00 0.00 0.00 63 1014.3
20260503014048 5 190 3.2 8.0 0.00 0.00 0.00 63 1014.3
20260503013549 5 190 1.6 8.0 0.00 0.00 0.00 63 1014.3
20260503013051 5 190 1.6 8.0 0.00 0.00 0.00 62 1014.2
20260503012548 6 0 4.8 8.0 0.00 0.00 0.00 62 1014.1
20260503012048 6 190 3.2 8.0 0.00 0.00 0.00 62 1014.2
20260503011605 6 190 0.0 9.7 0.00 0.00 0.00 62 1014.2
20260503011050 6 190 3.2 9.7 0.00 0.00 0.00 61 1014.2
20260503010548 6 190 4.8 9.7 0.00 0.00 0.00 61 1014.2
20260503010050 6 190 4.8 14.5 0.00 0.00 0.00 60 1014.1
20260503005550 6 190 4.8 14.5 0.00 0.00 0.00 60 1014.1
20260503005048 6 190 3.2 11.3 0.00 0.00 0.00 60 1014.1
20260503004615 6 190 3.2 8.0 0.00 0.00 0.00 59 1014.1
20260503004047 6 190 0.0 9.7 0.00 0.00 0.00 59 1014.0
20260503003549 6 190 3.2 9.7 0.00 0.00 0.00 59 1014.0
20260503003053 6 190 3.2 14.5 0.00 0.00 0.00 59 1014.1
20260503002548 7 190 6.4 14.5 0.00 0.00 0.00 58 1013.9
20260503002049 7 190 6.4 12.9 0.00 0.00 0.00 58 1013.7
20260503001552 7 190 4.8 11.3 0.00 0.00 0.00 58 1013.7
20260503001049 7 190 4.8 11.3 0.00 0.00 0.00 57 1013.6
20260503000549 7 190 4.8 11.3 0.00 0.00 0.00 57 1013.5
20260503000053 7 190 4.8 11.3 0.00 0.00 0.00 56 1013.4
20260502235548 7 190 4.8 17.7 0.00 0.00 0.00 56 1013.3
20260502235048 7 190 4.8 17.7 0.00 0.00 0.00 55 1013.2
20260502234612 8 190 6.4 11.3 0.00 0.00 0.00 54 1013.1
20260502234048 8 190 6.4 12.9 0.00 0.00 0.00 54 1013.2
20260502233548 8 190 3.2 14.5 0.00 0.00 0.00 54 1013.1
20260502233052 8 190 3.2 19.3 0.00 0.00 0.00 53 1013.1
20260502232548 9 190 6.4 19.3 0.00 0.00 0.00 52 1013.1
20260502232048 9 190 8.0 19.3 0.00 0.00 0.00 52 1013.0
20260502231556 9 190 6.4 19.3 0.00 0.00 0.00 52 1013.0
20260502231053 9 190 8.0 20.9 0.00 0.00 0.00 52 1012.9
20260502230548 9 190 8.0 20.9 0.00 0.00 0.00 52 1013.0
20260502230100 10 190 4.8 20.9 0.00 0.00 0.00 50 1012.8
20260502225547 10 190 8.0 19.3 0.00 0.00 0.00 51 1012.8
20260502225048 10 190 8.0 19.3 0.00 0.00 0.00 51 1012.8
20260502224556 10 190 6.4 17.7 0.00 0.00 0.00 51 1012.9
20260502224048 10 190 8.0 17.7 0.00 0.00 0.00 50 1012.8
20260502223549 10 190 4.8 14.5 0.00 0.00 0.00 51 1012.7
20260502223103 10 190 3.2 17.7 0.00 0.00 0.00 50 1012.8
20260502222549 10 190 4.8 17.7 0.00 0.00 0.00 50 1012.7
20260502222048 10 190 3.2 19.3 0.00 0.00 0.00 50 1012.7
20260502221558 10 190 4.8 19.3 0.00 0.00 0.00 50 1012.7
20260502221048 10 190 6.4 19.3 0.00 0.00 0.00 48 1012.7
20260502220548 11 190 8.0 20.9 0.00 0.00 0.00 49 1012.5
20260502215548 11 190 8.0 17.7 0.00 0.00 0.00 48 1012.4
20260502215047 11 190 4.8 19.3 0.00 0.00 0.00 47 1012.4
20260502214555 11 190 4.8 27.4 0.00 0.00 0.00 50 1012.4
20260502214048 11 190 8.0 27.4 0.00 0.00 0.00 49 1012.4
20260502213548 10 190 11.3 24.1 0.00 0.00 0.00 48 1012.3
20260502213104 10 190 6.4 22.5 0.00 0.00 0.00 51 1012.3
20260502212549 10 190 3.2 12.9 0.00 0.00 0.00 51 1012.1
20260502212049 10 190 4.8 19.3 0.00 0.00 0.00 49 1012.2
20260502211557 10 190 3.2 20.9 0.00 0.00 0.00 49 1012.1
20260502211048 10 190 9.7 22.5 0.00 0.00 0.00 48 1012.1
20260502210548 10 190 9.7 22.5 0.00 0.00 0.00 48 1012.1
20260502210059 11 190 6.4 16.1 0.00 0.00 0.00 48 1012.0
20260502205548 11 190 4.8 22.5 0.00 0.00 0.00 49 1012.0
20260502205048 11 190 4.8 30.6 0.00 0.00 0.00 48 1011.8
20260502204604 11 190 12.9 32.2 0.00 0.00 0.00 47 1011.8
20260502204048 11 190 11.3 32.2 0.00 0.00 0.00 45 1011.7
20260502203548 11 190 16.1 32.2 0.00 0.00 0.00 47 1011.7
20260502203119 11 190 8.0 20.9 0.00 0.00 0.00 47 1011.6
20260502202548 11 190 4.8 25.7 0.00 0.00 0.00 48 1011.8
20260502202051 11 190 6.4 25.7 0.00 0.00 0.00 46 1011.9
20260502201620 11 190 11.3 22.5 0.00 0.00 0.00 47 1012.0
20260502201051 11 190 12.9 24.1 0.00 0.00 0.00 45 1012.0
20260502200548 11 190 9.7 24.1 0.00 0.00 0.00 46 1012.1
20260502200116 11 190 3.2 14.5 0.00 0.00 0.00 48 1012.0
20260502195547 11 190 4.8 14.5 0.00 0.00 0.00 47 1012.1
20260502195048 11 190 6.4 19.3 0.00 0.00 0.00 47 1012.2
20260502194602 11 190 9.7 19.3 0.00 0.00 0.00 46 1012.1
20260502194048 11 190 8.0 25.7 0.00 0.00 0.00 46 1012.1
20260502193548 11 190 11.3 25.7 0.00 0.00 0.00 45 1012.2
20260502193109 11 190 11.3 25.7 0.00 0.00 0.00 46 1012.1
20260502192549 11 190 8.0 20.9 0.00 0.00 0.00 44 1012.2
20260502192048 11 190 8.0 22.5 0.00 0.00 0.00 45 1012.1
20260502191553 11 190 9.7 29.0 0.00 0.00 0.00 44 1012.1
20260502191048 11 190 16.1 30.6 0.00 0.00 0.00 45 1012.2
20260502190548 12 190 9.7 30.6 0.00 0.00 0.00 43 1012.0
20260502190052 12 190 12.9 27.4 0.00 0.00 0.00 45 1012.0
20260502185548 12 190 9.7 19.3 0.00 0.00 0.00 48 1012.0
20260502185048 12 190 4.8 14.5 0.00 0.00 0.00 45 1012.1
20260502184557 12 190 3.2 16.1 0.00 0.00 0.00 47 1012.2
20260502184048 12 190 6.4 16.1 0.00 0.00 0.00 48 1012.3
20260502183548 11 190 4.8 27.4 0.00 0.00 0.00 47 1012.3
20260502183055 11 190 6.4 29.0 0.00 0.00 0.00 47 1012.4
20260502182548 11 190 16.1 29.0 0.00 0.00 0.00 47 1012.5
20260502182048 11 190 14.5 25.7 0.00 0.00 0.00 47 1012.4
20260502181551 11 190 9.7 25.7 0.00 0.00 0.00 45 1012.6
20260502181048 10 190 11.3 41.8 0.00 0.00 0.00 50 1012.5
20260502180548 10 190 9.7 41.8 0.00 0.00 0.00 51 1012.7
20260502164048 9 190 12.9 24.1 0.00 0.00 0.00 54 1013.6
20260502163547 9 190 8.0 12.9 0.00 0.00 0.00 56 1013.7
20260502163100 8 190 3.2 19.3 0.00 0.00 0.00 56 1014.0
20260502162548 8 190 11.3 19.3 0.00 0.00 0.00 58 1014.1
20260502162050 8 190 0.0 22.5 0.00 0.00 0.00 61 1014.1
20260502161555 8 190 6.4 22.5 0.00 0.00 0.00 59 1014.1
20260502161048 8 190 4.8 20.9 0.00 0.00 0.00 60 1014.1
20260502160548 8 190 11.3 20.9 0.00 0.00 0.00 60 1014.3
20260502152049 7 190 1.6 14.5 0.00 0.00 0.00 65 1014.3
20260502151609 7 190 3.2 17.7 0.00 0.00 0.00 64 1014.2
20260502151048 7 190 6.4 17.7 0.00 0.00 0.00 65 1014.2
20260502150547 7 190 6.4 17.7 0.00 0.00 0.00 65 1014.2
20260502130549 5 190 3.2 16.1 0.00 0.00 0.00 69 1014.2
20260502123547 5 190 3.2 16.1 0.00 0.00 0.00 70 1013.8
20260502123051 5 190 4.8 19.3 0.00 0.00 0.00 69 1013.6
20260502122548 5 190 6.4 24.1 0.00 0.00 0.00 69 1013.7
20260502122047 5 190 9.7 24.1 0.00 0.00 0.00 69 1013.9
20260502121549 5 190 4.8 14.5 0.00 0.00 0.00 70 1013.9
20260502121048 5 190 6.4 14.5 0.00 0.00 0.00 69 1014.1
20260502120547 5 190 6.4 16.1 0.00 0.00 0.00 70 1014.1
20260502115547 5 190 6.4 19.3 0.00 0.00 0.00 69 1014.1
20260502115048 5 190 8.0 19.3 0.00 0.00 0.00 69 1013.9
20260502114550 5 190 6.4 19.3 0.00 0.00 0.00 69 1013.9
20260502114048 5 190 6.4 17.7 0.00 0.00 0.00 69 1013.8
20260502113548 5 190 9.7 19.3 0.00 0.00 0.00 69 1013.6
20260502113102 5 190 8.0 19.3 0.00 0.00 0.00 69 1013.7
20260502112549 5 190 9.7 17.7 0.00 0.00 0.00 68 1013.7
20260502112048 5 190 9.7 14.5 0.00 0.00 0.00 68 1013.5
20260502111549 5 190 8.0 14.5 0.00 0.00 0.00 68 1013.4
20260502111103 5 190 4.8 14.5 0.00 0.00 0.00 68 1013.6
20260502110548 5 190 6.4 12.9 0.00 0.00 0.00 68 1013.5
20260502110050 5 190 6.4 14.5 0.00 0.00 0.00 68 1013.6
20260502105548 5 190 6.4 14.5 0.00 0.00 0.00 67 1013.5
20260502105050 5 190 8.0 16.1 0.00 0.00 0.00 67 1013.4
20260502104557 5 190 8.0 16.1 0.00 0.00 0.00 67 1013.6
20260502104047 5 190 6.4 14.5 0.00 0.00 0.00 66 1013.5
20260502103547 5 190 6.4 11.3 0.00 0.00 0.00 66 1013.5
20260502103047 5 190 6.4 19.3 0.00 0.00 0.00 66 1013.6
20260502102549 5 190 6.4 19.3 0.00 0.00 0.00 66 1013.7
20260502102047 5 190 8.0 14.5 0.00 0.00 0.00 66 1013.8
20260502101603 5 190 8.0 12.9 0.00 0.00 0.00 66 1013.7
20260502101047 5 190 8.0 14.5 0.00 0.00 0.00 65 1013.7
20260502100548 5 190 8.0 14.5 0.00 0.00 0.00 66 1013.8
20260502091048 6 190 8.0 14.5 0.00 0.00 0.00 73 1013.9
20260502090549 6 190 6.4 17.7 0.00 0.00 0.00 74 1013.8
20260502071048 7 190 8.0 19.3 0.00 0.00 0.00 78 1013.1
20260502070548 7 190 8.0 19.3 0.00 0.00 0.00 78 1013.0
20260502070111 7 190 6.4 17.7 0.00 0.00 0.00 78 1013.1
20260502065548 7 190 11.3 19.3 0.00 0.00 0.00 78 1013.3
20260502065049 7 190 9.7 19.3 0.00 0.00 0.00 78 1013.3
20260502064552 7 190 11.3 19.3 0.00 0.00 0.00 77 1013.4
20260502064047 7 190 9.7 19.3 0.00 0.00 0.00 77 1013.4
20260502063548 7 190 9.7 19.3 0.00 0.00 0.00 77 1013.5
20260502063113 7 190 8.0 19.3 0.00 0.00 0.00 77 1013.6
20260502062551 7 190 8.0 19.3 0.00 0.00 0.00 77 1013.7
20260502062048 7 190 8.0 16.1 0.00 0.00 0.00 77 1013.7
20260502061550 7 190 9.7 16.1 0.00 0.00 0.00 77 1013.8
20260502061047 7 190 9.7 16.1 0.00 0.00 0.00 77 1013.7
20260502060547 7 190 8.0 16.1 0.00 0.00 0.00 77 1013.8
20260502060056 7 190 8.0 16.1 0.00 0.00 0.00 77 1013.9
20260502055548 7 190 6.4 14.5 0.00 0.00 0.00 77 1013.8
20260502055051 7 190 8.0 14.5 0.00 0.00 0.00 77 1013.8
20260502054603 7 190 8.0 17.7 0.00 0.00 0.00 77 1013.9
20260502054052 8 190 6.4 17.7 0.00 0.00 0.00 77 1014.0
20260502053548 8 190 8.0 14.5 0.00 0.00 0.00 77 1013.9
20260502053052 8 190 6.4 11.3 0.00 0.00 0.00 77 1013.9
20260502052548 8 190 6.4 12.9 0.00 0.00 0.00 77 1013.8
20260502052048 8 190 6.4 17.7 0.00 0.00 0.00 77 1013.8
20260502051553 8 190 6.4 17.7 0.00 0.00 0.00 77 1013.8
20260502051047 8 190 6.4 14.5 0.00 0.00 0.00 77 1013.8
20260502050547 8 190 6.4 14.5 0.00 0.00 0.00 77 1013.7
20260502050054 8 190 6.4 14.5 0.00 0.00 0.00 77 1013.8
20260502045547 8 190 8.0 16.1 0.00 0.00 0.00 77 1013.8
20260502045047 8 190 8.0 20.9 0.00 0.00 0.00 77 1013.8
20260502044550 8 190 11.3 20.9 0.00 0.00 0.00 77 1013.9
20260502044050 8 190 9.7 14.5 0.00 0.00 0.00 76 1013.9
20260502043547 8 190 8.0 14.5 0.00 0.00 0.00 76 1013.9
20260502043110 9 190 8.0 14.5 0.00 0.00 0.00 76 1013.9
20260502042548 9 190 8.0 14.5 0.00 0.00 0.00 76 1014.0
20260502042050 9 190 6.4 14.5 0.00 0.00 0.00 76 1014.1
20260502041614 9 190 8.0 14.5 0.00 0.00 0.00 76 1013.8
20260502041050 9 190 4.8 12.9 0.00 0.00 0.00 76 1013.8
20260502040550 9 190 3.2 8.0 0.00 0.00 0.00 76 1013.8
20260502040057 9 190 3.2 16.1 0.00 0.00 0.00 76 1013.9
20260502035547 10 190 4.8 16.1 0.00 0.00 0.00 75 1014.1
20260502035048 10 190 8.0 16.1 0.00 0.00 0.00 75 1014.1
20260502034550 10 190 8.0 16.1 0.00 0.00 0.00 75 1014.1
20260502034047 10 190 6.4 16.1 0.00 0.00 0.00 74 1014.1
20260502033548 10 190 4.8 16.1 0.00 0.00 0.00 74 1014.1